リニア彗星

234P/LINEAR (2024)

English version
Home page
Updated on February 29, 2024

---------------------------------------------------------------------

・ プロフィール

・ 写真集

・ 軌道要素

Epoch 2024 Mar. 31.0 TT = JDT 2460400.5
T 2024 Oct. 23.57808 TT                                 Rudenko
q   2.8209019            (2000.0)            P               Q
n   0.13327973     Peri.  357.41914     -0.99862348     -0.05242949
a   3.7957126      Node   179.56674     +0.05099053     -0.97716496
e   0.2568189      Incl.   11.53556     +0.01229242     -0.20591209
P   7.40
>From 305 observations 2002 Jan. 16-2024 Feb. 14, mean residual 0".8.

・ 光度変化

        m1 = 12.5 + 5 logΔ + 10.0 log r

---------------------------------------------------------------------

軌道要素はM.P.E.C. 2024-D126に掲載されたものです。
光度グラフはComet for Windowsで作成したものです。

---------------------------------------------------------------------

Copyright(C) Seiichi Yoshida (comet@aerith.net). All rights reserved.